This is the latest recevied weather packets stored in our database for station/object KC0QBU-13. If no packets are shown the sender has not sent any weather packets the latest 10 day(s).
| Time | Temp. | Humidity | Pressure | Rain* | Wind** | Luminosity | Snow |
|---|---|---|---|---|---|---|---|
| 1777872802 | 18.89° C | 54% | 1009 hPa | 0 mm | - | - | - |
| 1777872502 | 18.89° C | 52% | 1009 hPa | 0 mm | - | - | - |
| 1777872172 | 18.89° C | 52% | 1009.1 hPa | 0 mm | - | - | - |
| 1777871872 | 17.78° C | 59% | 1009.1 hPa | 0 mm | - | - | - |
| 1777871572 | 17.22° C | 60% | 1009.2 hPa | 0 mm | - | - | - |
| 1777871242 | 17.78° C | 61% | 1009.2 hPa | 0 mm | - | - | - |
| 1777870942 | 17.22° C | 61% | 1009.1 hPa | 0 mm | - | - | - |
| 1777870612 | 17.22° C | 60% | 1009.3 hPa | 0 mm | - | - | - |
| 1777870282 | 17.22° C | 59% | 1009.3 hPa | 0 mm | - | - | - |
| 1777869982 | 17.22° C | 60% | 1009.2 hPa | 0 mm | - | - | - |
| 1777869682 | 17.78° C | 59% | 1009.2 hPa | 0 mm | - | - | - |
| 1777869382 | 17.78° C | 58% | 1009.1 hPa | 0 mm | - | - | - |
| 1777869052 | 17.78° C | 57% | 1009 hPa | 0 mm | - | - | - |
| 1777868752 | 17.78° C | 57% | 1009 hPa | 0 mm | - | - | - |
| 1777868422 | 18.33° C | 57% | 1008.9 hPa | 0 mm | - | - | - |
| 1777868122 | 18.33° C | 56% | 1008.9 hPa | 0 mm | - | - | - |
| 1777867822 | 18.33° C | 55% | 1008.9 hPa | 0 mm | - | - | - |
| 1777867492 | 18.89° C | 55% | 1008.8 hPa | 0 mm | - | - | - |
| 1777867192 | 18.89° C | 56% | 1008.8 hPa | 0 mm | - | - | - |
| 1777866862 | 18.89° C | 55% | 1008.8 hPa | 0 mm | - | - | - |
| 1777866562 | 18.89° C | 54% | 1008.9 hPa | 0 mm | - | - | - |
| 1777866262 | 18.89° C | 54% | 1008.9 hPa | 0 mm | - | - | - |
| 1777865932 | 18.89° C | 55% | 1009.2 hPa | 0 mm | - | - | - |
| 1777865632 | 18.89° C | 57% | 1009.1 hPa | 0 mm | - | - | - |
| 1777865302 | 18.89° C | 57% | 1009.2 hPa | 0 mm | - | - | - |
* Rain latest hour (hover to see other rain measurements)
** Current wind speed in m/s (hover to see current wind gust speed)